Regional Weather Roundup
Issued by NWS

Home | Current Version | Previous Version | Graphics & Text | Print | Product List | Glossary On
Versions: 1 2 3 4 5 6 7 8 9 10 11 12 13 14 15 16 17 18 19 20 21 22 23 24 25 26 27 28
000
ASUS45 KCYS 252310
RWRWY

WYOMING REGIONAL WEATHER ROUNDUP
NATIONAL WEATHER SERVICE CHEYENNE WY
500 PM MDT WED APR 25 2018

NOTE:  "FAIR" INDICATES FEW OR NO CLOUDS BELOW 12,000 FEET
WITH NO SIGNIFICANT WEATHER AND/OR OBSTRUCTIONS TO VISIBILITY.

WYZ001-260000-
YELLOWSTONE NATIONAL PARK

CITY           SKY/WX    TMP DP  RH WIND       PRES   REMARKS
LK YELLOWSTONE   N/A     49  16  26 W12G24    30.18F
W YELLOWSTONE  NOT AVBL

$$
WYZ002>013-054>058-071-098>099-260000-
NORTHERN WYOMING

CITY           SKY/WX    TMP DP  RH WIND       PRES   REMARKS
JACKSON        FAIR      60  20  21 W16G23    30.14F
CODY           FAIR      65  20  17 E8        30.01F
GREYBULL       FAIR      65  27  23 NW12      29.97F
WORLAND        FAIR      68  26  20 N10       29.96F
SHERIDAN       FAIR      64  24  21 NW24G32   29.99R
BUFFALO        FAIR      63  24  22 N25G37    29.99R
GILLETTE       FAIR      67  23  19 N24       29.90F
HULETT         FAIR      72  23  16 SW12      29.92F
NEWCASTLE      FAIR      66  19  16 SE9       29.94F

$$
WYZ014>020-022>026-101>103-260000-
CENTRAL WYOMING

CITY           SKY/WX    TMP DP  RH WIND       PRES   REMARKS
BIG PINEY      FAIR      62   6  11 W10G24    30.14F
PINEDALE       FAIR      59  16  18 NW13G23   30.13F
DUBOIS         FAIR      55  10  16 NW22G32   30.09F
LANDER         FAIR      67  16  14 VRB6      29.99F
RIVERTON       FAIR      67  17  14 SW8       30.00F
CASPER         FAIR      67   9  10 SW22G29   29.98F
DOUGLAS        FAIR      71  11  10 W15       29.98F

$$
WYZ021-027>030-104>119-260000-
SOUTHERN WYOMING

CITY           SKY/WX    TMP DP  RH WIND       PRES   REMARKS
EVANSTON       FAIR      63  14  15 SW20G29   30.19F
KEMMERER       FAIR      61   9  12 W25G35    30.17F
FORT BRIDGER   FAIR      66   8  10 W24G32    30.19F
ROCK SPRINGS   FAIR      63   8  11 W21G29    30.14F
DIXON          FAIR      64  11  12 SW14G20   30.17F
RAWLINS        FAIR      65   2   8 W24G32    30.11F
SARATOGA       FAIR      63   3   9 W17G23    30.14F
LARAMIE        FAIR      62   8  12 N3        30.10F
CHEYENNE       FAIR      62  27  26 SW13      30.08F
TORRINGTON     FAIR      71  21  15 S6        29.96F
PINE BLUFFS    FAIR      64  25  22 S10G17    30.05F

$$




USA.gov is the U.S. government's official web portal to all federal, state and local government web resources and services.